Zurück zum Katalog

STARLINK-37351

AktivKommunikationSSO
NORAD 68742·PAYLOAD·🇺🇸 United States

Gestartet Apr 15, 2026 von Vandenberg Space Force Base

Loading…

Nächste Überflüge (nächste 24 Stunden)

TLE

AktuellSource: CelesTrak SupGP

Epoche: Sep 14, 2026, 21:06 UTC

1 68742C 26082Q   26257.87965278  .00014979  00000+0  46556-3 0  2574
2 68742  97.2846 120.1078 0001911  99.2800 275.0301 15.33390608    11

Verfolge STARLINK-37351 in Echtzeit mit AllMySat

Download on the App Store